Vertical_Velocity
-1 2 -1 2 -2 -1 -4 -3 -2 -2 -1 -0 -0 -1 -1 -0 -1 -1 -1 -1 -0 -1 -1 -2 -0 -2 -1 -1 -0 -0 -0 -1 -1 -0 -0 -0 -1 -0 -0 -1 -0 0 -0
-1 1 0 2 -2 1 -0 -2 -2 -2 -2 -2 -1 -1 -1 -2 -2 -1 -2 -1 -1 -1 -1 -1 -0 0 1 -0 -1 -1 -0 -0 -1 -1 -1 -1 -0 -1 -1 -1 -2 -1 0
-3 0 0 3 -1 -1 -0 -2 -2 -0 -1 -1 -1 -0 -1 -1 -0 -1 -0 -1 -1 -1 -4 -2 -0 -1 -1 -1 -1 -1 -0 0 -1 0 -0 1 0 -0 -0 -1 -0 -1 -1
0 2 1 2 -1 -3 -0 -1 -3 -2 -0 -0 -1 -1 -1 -1 -1 -1 -0 -1 -2 -2 -1 -0 -1 -0 0 -1 -1 -1 -1 -1 -1 -0 -0 -0 1 -0 -0 -1 -1 -1 -0
1 2 0 1 0 -3 -2 -1 -3 -3 -3 -1 -1 -0 -2 -1 -0 -0 -1 0 0 0 -1 -1 -0 1 0 -0 0 2 1 1 -1 -2 -1 -2 -1 -1 -1 -1 -2 -0 -0
1 -1 2 1 1 -0 -2 -1 -2 -4 -3 -3 -2 -2 -2 -1 -2 -1 -2 -1 -0 -1 -1 -1 -1 -2 -2 -1 -1 -0 -1 -1 1 0 -0 -1 -2 -1 1 -2 -1 -0 -1
1 -3 -1 -0 2 1 -1 0 -2 -1 -3 -4 -1 -2 -2 -2 -2 -2 -2 -2 -2 -1 -1 -1 -1 -2 -2 -1 -1 -1 -3 0 -2 -2 0 -2 -1 -2 -2 -1 -1 -1 0
-1 1 1 0 -1 2 1 -1 1 -2 -2 -6 -4 -2 -2 -2 -2 -1 -1 -2 -2 -2 -2 -1 -2 -2 -1 -3 -2 -1 0 -2 -1 -1 -0 -1 -1 -1 -2 -1 -0 -1 -2
2 -1 4 2 3 1 0 -1 2 -2 0 -2 -4 -3 -3 -1 -1 -1 -1 -1 -1 -2 -2 -0 -1 -1 -2 -2 -1 -0 -1 -0 -1 -2 -2 -1 0 -2 -0 -1 -0 -1 2
-1 -1 2 0 0 1 4 1 2 2 -3 0 1 -0 -4 -4 -0 -2 -0 -2 -2 -1 -1 -1 -1 0 -0 2 -0 -3 -1 -1 -1 1 -0 -1 -2 -1 0 -0 -0 -0 1
-1 -1 -1 -1 2 0 1 3 -1 2 2 -3 1 -0 2 -0 -3 -2 -2 -2 -0 -1 -1 -1 -1 0 -1 -1 -1 -0 -0 0 -1 -1 -0 -1 -1 -1 -2 -3 0 -3 -1
-1 -1 1 0 -1 0 2 3 3 -1 0 -0 -0 -1 -2 -1 0 -1 -3 -2 -1 -1 -2 -0 -1 1 -1 -1 -2 0 -1 -1 -0 -0 2 -0 -1 -2 -1 -1 -1 -2 -1
-2 -4 -2 -1 0 -0 2 2 0 0 1 -1 2 0 -2 -2 -3 -2 2 0 -1 -2 -1 0 -2 2 -1 0 -1 0 -1 -1 -2 -2 1 -0 -1 -2 0 -1 0 -1 -1
-2 -2 -1 -1 -1 -0 1 0 0 1 1 -0 0 -1 2 -1 -3 -2 -1 -2 -2 -0 -2 -2 -1 1 -0 -0 -1 -0 -0 -1 -2 -5 4 -2 -1 -1 -0 -0 -3 -0 -1
-0 1 0 1 2 -1 -1 -3 -2 -1 -0 1 -1 -0 0 -1 -2 -2 -2 2 -2 -0 -0 -1 -1 -1 -2 -2 -1 -0 1 -0 -1 -1 -1 -2 1 -3 -1 -2 0 -0 0
3 0 2 1 2 -1 -1 -2 -0 -1 1 1 -2 1 2 0 1 0 0 -3 -1 -1 1 -1 -4 -2 -2 -2 -1 -2 -2 -1 -1 1 -10 0 0 -2 0 0 -1 -1 -0
4 -0 -2 -1 -1 -4 -2 1 2 1 1 1 -1 -1 -2 1 -2 2 2 -5 0 -0 3 -1 2 -3 -3 0 0 0 -1 -2 -0 0 -5 -1 -0 -1 -1 -0 -0 -1 -2
-3 -4 1 -2 -3 -2 -1 -1 -0 -1 -2 -1 1 2 -0 0 1 -2 -2 -3 2 -1 -1 1 3 3 1 1 -3 -2 2 0 -1 -2 1 -6 4 1 -4 -0 0 0 -1
2 0 -0 1 0 1 -1 1 2 2 0 3 -0 -2 2 2 1 4 -1 1 -2 -1 -0 1 1 2 -1 -2 2 -2 -1 -1 -2 -2 0 1 -4 -4 1 0 -0 -1 -0
-4 -2 -0 1 0 2 1 1 -11 5 -4 2 1 -2 4 2 -0 2 4 5 3 -3 -1 -2 1 4 -2 -2 -2 -2 1 1 -1 -2 -1 0 -1 -1 -4 6 -2 0 1
1 2 3 2 2 3 1 1 -8 0 7 -1 -1 5 0 1 3 2 1 3 0 2 1 -2 1 -1 1 0 2 1 0 -1 0 -1 0 1 -1 2 -0 -1 0 1 -1
0 -1 -2 -0 0 -0 1 3 5 -8 3 1 5 2 2 -2 -2 2 1 4 0 3 3 1 3 2 -0 2 2 1 -5 -1 -1 0 1 0 -1 2 0 -0 1 -2 -1
-2 2 1 0 -1 0 1 3 2 -1 -5 -2 -1 -0 6 7 0 -3 2 -0 4 -0 -1 2 -2 0 1 3 3 4 -6 -0 2 5 0 1 0 -0 1 0 2 -0 -3
0 -1 -1 -0 0 -1 0 -0 2 5 -1 2 -1 -0 0 2 6 1 -0 0 1 7 -1 -1 9 3 3 -0 8 1 -3 -1 -2 -3 3 2 3 -1 0 -1 -1 -1 -0
0 -1 -1 -1 -2 -1 -0 -0 1 1 3 1 0 -1 1 -0 2 7 4 2 0 -1 5 4 3 -3 1 -1 10 5 3 -2 2 -3 -2 1 -10 0 2 -3 -0 -1 1
-0 0 -2 -2 -0 -1 -1 -1 -1 -2 -1 -1 2 2 1 4 4 0 4 7 5 -1 -0 4 7 3 2 10 -2 -3 3 2 4 3 6 -5 2 2 2 -1 -3 -3 -1
Height
3171 3172 3173 3173 3173 3173 3173 3173 3173 3172 3172 3171 3171 3170 3169 3168 3167 3166 3165 3165 3164 3164 3164 3163 3164 3164 3164 3166 3167 3168 3169 3170 3171 3172 3172 3172 3173 3173 3172 3172 3172 3172 3171
3171 3172 3173 3174 3174 3173 3173 3173 3174 3173 3173 3173 3172 3171 3170 3169 3167 3167 3166 3166 3165 3165 3164 3164 3165 3165 3166 3166 3167 3168 3170 3170 3171 3171 3172 3172 3172 3172 3172 3172 3172 3171 3171
3170 3172 3173 3174 3174 3174 3174 3174 3174 3175 3174 3173 3172 3172 3170 3169 3168 3168 3167 3167 3166 3166 3165 3166 3167 3167 3167 3168 3168 3169 3170 3171 3171 3171 3171 3172 3172 3172 3172 3172 3171 3171 3170
3169 3171 3173 3174 3174 3175 3175 3175 3175 3175 3174 3174 3173 3172 3171 3171 3170 3169 3168 3168 3168 3167 3167 3167 3168 3168 3169 3169 3170 3171 3171 3171 3171 3172 3171 3171 3172 3171 3171 3171 3171 3170 3170
3168 3170 3172 3174 3175 3175 3175 3175 3175 3176 3176 3175 3175 3174 3173 3172 3171 3171 3170 3170 3169 3169 3169 3169 3169 3170 3170 3170 3170 3171 3171 3172 3172 3171 3172 3171 3172 3172 3171 3171 3170 3170 3169
3167 3169 3171 3173 3174 3175 3175 3175 3175 3176 3177 3177 3176 3176 3175 3175 3174 3173 3172 3172 3171 3171 3171 3171 3171 3171 3171 3171 3171 3172 3172 3172 3172 3171 3171 3171 3171 3170 3171 3170 3170 3169 3168
3166 3168 3170 3172 3174 3174 3175 3175 3175 3176 3177 3177 3177 3177 3177 3176 3176 3176 3175 3174 3174 3173 3174 3173 3173 3173 3173 3173 3173 3173 3173 3172 3172 3171 3171 3171 3171 3171 3170 3169 3169 3168 3168
3165 3167 3169 3171 3172 3174 3175 3175 3175 3176 3177 3178 3178 3178 3178 3178 3178 3178 3177 3177 3176 3176 3175 3175 3175 3175 3175 3175 3175 3174 3174 3173 3173 3172 3171 3171 3171 3170 3170 3169 3169 3168 3167
3165 3166 3168 3170 3171 3172 3173 3174 3175 3176 3177 3177 3178 3178 3179 3179 3179 3179 3179 3178 3177 3177 3177 3176 3176 3176 3176 3176 3176 3176 3175 3174 3174 3173 3172 3171 3170 3170 3169 3168 3167 3166 3166
3164 3165 3167 3168 3169 3171 3172 3173 3174 3175 3176 3177 3177 3178 3178 3179 3180 3179 3179 3179 3179 3178 3178 3177 3177 3177 3177 3177 3176 3176 3176 3175 3174 3173 3172 3171 3170 3169 3168 3167 3166 3165 3164
3162 3164 3165 3166 3167 3169 3170 3171 3172 3173 3174 3175 3176 3177 3177 3178 3179 3179 3179 3179 3179 3178 3178 3178 3177 3177 3177 3177 3176 3176 3175 3175 3174 3173 3172 3171 3170 3168 3167 3166 3165 3164 3163
3160 3162 3163 3164 3165 3166 3167 3169 3170 3171 3171 3172 3174 3175 3176 3176 3177 3177 3178 3178 3178 3177 3178 3177 3177 3177 3176 3176 3176 3175 3175 3173 3173 3172 3171 3170 3169 3167 3166 3165 3164 3163 3162
3158 3159 3160 3161 3162 3163 3165 3167 3168 3169 3169 3170 3171 3172 3173 3174 3175 3175 3176 3176 3176 3176 3176 3176 3176 3175 3175 3175 3175 3174 3173 3172 3171 3170 3169 3168 3167 3166 3165 3164 3162 3161 3160
3155 3157 3158 3159 3160 3160 3162 3163 3164 3166 3167 3167 3168 3169 3170 3171 3172 3172 3173 3173 3174 3174 3174 3174 3174 3173 3173 3173 3173 3172 3171 3170 3169 3167 3168 3166 3165 3164 3164 3163 3161 3160 3159
3151 3153 3155 3156 3156 3158 3159 3160 3161 3162 3163 3164 3165 3166 3167 3167 3168 3169 3169 3170 3170 3170 3170 3171 3171 3171 3170 3170 3170 3169 3169 3168 3166 3165 3164 3163 3162 3162 3161 3160 3159 3158 3157
3147 3148 3150 3152 3153 3155 3156 3157 3158 3158 3159 3160 3162 3163 3163 3164 3164 3164 3164 3165 3166 3166 3167 3167 3167 3167 3166 3166 3166 3166 3165 3165 3163 3162 3160 3161 3160 3159 3158 3157 3157 3156 3155
3142 3143 3146 3148 3149 3151 3152 3153 3154 3154 3155 3156 3157 3158 3159 3159 3160 3159 3160 3160 3161 3161 3161 3162 3162 3163 3162 3162 3162 3162 3161 3161 3160 3159 3157 3157 3156 3155 3155 3154 3153 3153 3153
3136 3139 3142 3143 3144 3146 3147 3148 3149 3150 3151 3151 3152 3152 3153 3154 3155 3155 3155 3155 3156 3156 3157 3157 3156 3157 3157 3157 3157 3157 3157 3156 3156 3155 3154 3152 3152 3152 3151 3150 3149 3149 3149
3132 3133 3135 3136 3138 3140 3141 3142 3143 3144 3144 3146 3146 3147 3148 3148 3149 3149 3149 3150 3150 3151 3151 3152 3152 3152 3152 3152 3152 3152 3152 3151 3151 3150 3149 3148 3147 3146 3146 3146 3146 3145 3145
3123 3124 3127 3129 3131 3134 3135 3135 3134 3138 3138 3140 3140 3140 3142 3142 3143 3142 3143 3144 3144 3144 3146 3147 3147 3147 3147 3147 3146 3145 3145 3145 3145 3145 3144 3143 3142 3141 3141 3142 3141 3141 3141
3115 3118 3120 3122 3124 3127 3128 3129 3126 3129 3133 3133 3134 3135 3134 3134 3136 3136 3137 3137 3137 3137 3139 3139 3140 3140 3140 3140 3140 3140 3139 3139 3139 3139 3138 3138 3137 3137 3136 3136 3136 3136 3136
3108 3109 3112 3113 3115 3118 3120 3121 3121 3118 3122 3124 3126 3127 3128 3128 3129 3129 3130 3130 3130 3131 3130 3131 3132 3132 3133 3133 3134 3132 3131 3133 3133 3133 3132 3132 3131 3131 3131 3130 3130 3130 3130
3101 3102 3105 3106 3107 3109 3110 3111 3111 3110 3110 3112 3115 3117 3120 3121 3120 3121 3121 3122 3123 3122 3123 3124 3124 3124 3126 3126 3126 3126 3124 3125 3127 3127 3126 3125 3125 3125 3125 3124 3123 3123 3123
3095 3096 3097 3098 3099 3100 3101 3102 3102 3102 3101 3103 3104 3105 3107 3109 3111 3111 3111 3112 3114 3115 3114 3115 3115 3116 3116 3117 3118 3118 3117 3117 3118 3119 3119 3118 3117 3118 3117 3117 3117 3116 3116
3089 3090 3090 3091 3092 3092 3093 3093 3094 3093 3094 3094 3094 3095 3096 3098 3099 3101 3102 3102 3102 3103 3105 3105 3106 3106 3108 3108 3110 3110 3110 3110 3110 3109 3110 3111 3110 3111 3109 3109 3109 3108 3108
3084 3085 3085 3086 3086 3086 3086 3086 3086 3086 3086 3086 3085 3085 3087 3088 3088 3088 3091 3091 3092 3091 3093 3094 3095 3095 3097 3099 3099 3100 3101 3101 3102 3102 3101 3098 3101 3102 3101 3100 3100 3100 3099